FENGYUN 1C DEB, 31205

Orbit data source: Space-Track

FENGYUN 1C DEB, 31205 is space debris in SSO originally from a launch on Mon, 10 May 1999 UTC launched from the Taiyaun Space Center, China (TSC). Fengyun 1C debris stems from the Chinese weather satellite Fengyun-1C, which was intentionally destroyed by a Chinese anti-satellite missile in 2007. This event dramatically increased the amount of space debris, with thousands of trackable fragments posing hazards to satellites and human spaceflight. The Fengyun 1C debris cloud has become a focal point in discussions about space sustainability and the need for international regulations to prevent the creation of new debris.

Loading next visibility...
Identifier
31205, 1999-025BKK
Orbit
SSO
Country
Flag of CNCN / PRC
Related business
Manufacturer
Unknown
Mission
Spacecraft
Bus & Motor
Unknown
Mass
Unknown
Launch date (UTC)
1999-05-10 (27 years ago)
Launch vehicle
Unknown
Launch site
Taiyaun Space Center, China (TSC)
Object type
Payload
Rocket body
Debris
Shape & HBR
Unknown shape, 0.1 m
Radar Cross Section
Small (<0.1 m²)

Expand to show TLE details & history
Last TLE update: 2 days ago

TLE from 2 days ago
0 FENGYUN 1C DEB
1 31205U 99025BKK 25311.50556352  .00000406  00000-0  17462-3 0  9992
2 31205  99.2299  42.9081 0161241 298.4851  60.0167 14.23914246967096
Epoch: 2025-11-07T12:08Z
TLE epoch observation values (Epoch: 2025-11-07T12:08:00.688Z)
Latitude
-0.00001°
Longitude
173.95668°
Altitude
758.519 km
Speed
7.504 km/s
True Right ascension
02h 51m 37s
True Declination
0° 00' 00"
Sunlit
Object was in full shadow at epoch
Visualization orbit readout
Latitude
Unknown
Longitude
Unknown
Altitude
Unknown
Speed
Unknown
Apparent Right ascension
Unknown
Apparent Declination
Unknown
Sunlit
N/A
Visualization observer readout
Local Sidereal Time
07:41:10
Azimuth
Unknown
Elevation
Unknown
Doppler factor
Unknown
Orbital elements
Apogee altitude
925.215 km
Perigee altitude
693.432 km
Semi-major axis
7,187.46 km
Eccentricity
0.01612
Inclination
99.2299°
RAAN
42.9081°
Arg. of periapsis
298.4851°
True anomaly
61.63317°
Mean anomaly
60.0167°
Eccentric anomaly
60.82333°
Mean motion
3.56189 °/min
Orbital period
101.07 mins
BSTAR
0.00017462
Loading maneuver chart data...
Computing Atmospheric mass density...

Documentation

Showing up to 5 results
|